Comodoro Rivadavia, Argentina

10:44 AM America en Agosto 17, 2018 (GMT +0000)
GEN. Enrique Mosconi International

Tiempo Historia de SAVC - Julio, 2018

Change the Weather History Date:

Jueves, Julio 12, 2018

  Actual Average Record
Temperature  
Temperatura media 49 ° F -  
Temperatura máxima 54 ° F 52 ° F 62 ° F (1998)
Temperatura mínima 42 ° F 37 ° F 23 ° F (2000)
Degree Days  
Grados día de calefacción 16    
Moisture  
Punto de rocío 39 ° F    
Average Humidity 68    
Maximum Humidity 82    
Minimum Humidity 40    
Precipitación  
Precipitación 0.08 pul 0.04 pul - ()
Presión al nivel del mar  
Presión al nivel del mar 29.66 pul    
Viento  
Velocidad del viento 6 mph ()    
Velocidad máxima del viento 15 mph    
Max Gust Speed -    
Visibilidad 9.7 Millas    
Eventos Lluvia    
Averages and records for this station are not official NWS values.
T = Trace of Precipitation, MM = Missing Value Source: Averaged Metar Reports

Daily Weather History Graph

Daily Weather History Graph

Search for Another Location

Airport or City:

Astronomía

Jul. 12, 2018 Salida Puesta
Hora real 9:07 AM -03 6:03 PM -03
Crepúsculo civil 8:34 AM -03 6:37 PM -03
Crepúsculo náutico 7:56 AM -03 7:14 PM -03
Crepúsculo astronómico 7:21 AM -03 7:50 PM -03
Luna 8:28 AM -03 (7/12) 5:47 PM -03 (7/12)
Horas de luz 10h 03m
Horas de luz
8h 56m
Creciente menguante, 0% of the Moon is Illuminated
Jul 12
Creciente menguante
Jul 12
Nueva
Jul 19
Cuarto creciente
Jul 27
Luna llena
Ago 4
Cuarto menguante

Hourly Weather History & Observations

Hora (-03) Temp. Vientos helados Punto de rocío Humedad Presión Visibilidad Wind Dir Velocidad del viento Velocidad de ráfagas Precip Eventos Condiciones
12:00 AM 49 ° F - 32 ° F 40% 29.75 pul 19 mi ONO 6.9 mph - -   Nublado
12:00 AM 48.2 ° F - 32.0 ° F 54% 29.77 pul - ONO 6.9 mph - N/A   Despejado
1:00 AM 48.2 ° F - 32.0 ° F 54% 29.74 pul - NO 12.7 mph - N/A   Despejado
2:00 AM 48.2 ° F - 35.6 ° F 62% 29.71 pul - NO 11.5 mph - N/A   Despejado
3:00 AM 48 ° F - 35 ° F 50% 29.64 pul 19 mi NO 13.8 mph - -   Nublado
3:00 AM 48.2 ° F - 35.6 ° F 62% 29.65 pul - NO 13.8 mph - N/A   Despejado
4:00 AM 48.2 ° F - 35.6 ° F 62% 29.62 pul 6.2 mi NO 15.0 mph - N/A Lluvia Lluvia débil
5:00 AM 48.2 ° F - 37.4 ° F 66% 29.59 pul 6.2 mi NO 8.1 mph - N/A Lluvia Lluvia débil
6:00 AM 46.4 ° F 42.9 ° F 39.2 ° F 76% 29.59 pul 6.2 mi NO 6.9 mph - N/A Lluvia Lluvia débil
7:00 AM 46.4 ° F 45.2 ° F 41.0 ° F 81% 29.56 pul 6.2 mi ONO 3.5 mph - N/A Lluvia Lluvia débil
8:00 AM 46.4 ° F 45.2 ° F 41.0 ° F 81% 29.56 pul 6.2 mi ONO 3.5 mph - N/A Lluvia Lluvia débil
9:00 AM 46 ° F - 42 ° F 79% 29.55 pul 16 mi SSO 2.3 mph - - Lluvia Lluvia débil
9:00 AM 46.4 ° F - 41.0 ° F 81% 29.56 pul 6.2 mi SSO 2.3 mph - N/A Lluvia Lluvia débil
10:00 AM 46.4 ° F 43.5 ° F 41.0 ° F 81% 29.59 pul 6.2 mi OSO 5.8 mph - N/A Lluvia Lluvia débil
11:00 AM 46.4 ° F - 41.0 ° F 81% 29.59 pul 6.2 mi Sin viento Sin viento - N/A   Muy nublado
12:00 PM 48 ° F - 42 ° F 73% 29.61 pul 19 mi SSO 2.3 mph - -   Parcialmente nublado
12:00 PM 48.2 ° F - 42.8 ° F 82% 29.62 pul 6.2 mi SSO 2.3 mph - N/A   Parcialmente nublado
1:00 PM 51.8 ° F - 41.0 ° F 67% 29.62 pul 6.2 mi OSO 6.9 mph - N/A   Parcialmente nublado
2:00 PM 53.6 ° F - 37.4 ° F 54% 29.62 pul 6.2 mi OSO 12.7 mph - N/A   Parcialmente nublado
3:00 PM 53 ° F - 39 ° F 47% 29.61 pul 19 mi SO 10.4 mph - -   Parcialmente nublado
3:00 PM 53.6 ° F - 39.2 ° F 58% 29.62 pul 6.2 mi SO 10.4 mph - N/A   Parcialmente nublado
4:00 PM 53.6 ° F - 39.2 ° F 58% 29.65 pul 6.2 mi SO 8.1 mph - N/A   Nubes dispersas
5:00 PM 53.6 ° F - 41.0 ° F 62% 29.68 pul 6.2 mi SO 8.1 mph - N/A   Nubes dispersas
6:00 PM 53 ° F - 42 ° F 56% 29.68 pul 19 mi SO 4.6 mph - -   Parcialmente nublado
6:00 PM 51.8 ° F - 42.8 ° F 71% 29.71 pul 6.2 mi SO 4.6 mph - N/A   Nubes dispersas
7:00 PM 51.8 ° F - 44.6 ° F 76% 29.71 pul 6.2 mi Sin viento Sin viento - N/A   Nubes dispersas
8:00 PM 48.2 ° F - 42.8 ° F 82% 29.74 pul 6.2 mi Sin viento Sin viento - N/A   Nubes dispersas
8:20 PM 48.2 ° F - 42.8 ° F 82% 29.74 pul 6.2 mi NO 3.5 mph - N/A   Nubes dispersas
9:00 PM 46 ° F - 40 ° F 72% 29.72 pul 19 mi Oeste 3.5 mph - -   Despejado
9:00 PM 46.4 ° F 45.2 ° F 39.2 ° F 76% 29.74 pul - Oeste 3.5 mph - N/A   Despejado
10:00 PM 44.6 ° F - 37.4 ° F 76% 29.77 pul - Oeste 2.3 mph - N/A   Despejado
11:00 PM 42.8 ° F 39.3 ° F 37.4 ° F 81% 29.77 pul - NO 5.8 mph - N/A   Despejado